Погода в Джамнагаре

Индия     22°28′00″N   70°04′12″E
темп.,
°C
ветер,
м/с
пор.,
м/с
влажн.,
%
обл.,
%
осадки,
мм/ч
давл.,
гПа
погр.,
м
8 декабря, ср
ср823:30+24св710630 0.0 1015280
02:30+23св610620 0.0 1014278
05:30+23св58630 0.0 1014236
08:30+23всв57570 0.0 1017371
11:30+26св56420 0.0 1017637
14:30+27с55370 0.0 1014986
17:30+27с46380 0.0 1014550
20:30+25ссв710510 0.0 1016275
9 декабря, чт
чт923:30+24ссв58540 0.0 1016167
02:30+23св57530 0.0 1015173
05:30+22св57530 0.0 1015214
08:30+22всв57530 0.0 1017318
11:30+25св56430 0.0 1018583
14:30+27с55390 0.0 1015840
17:30+27с57370 0.0 1015474
20:30+24с811530 0.0 1017284
10 декабря, пт
пт1023:30+24ссв69545 0.0 1017197
02:30+23св58530 0.0 1016209
05:30+22св68561 0.0 1016229
08:30+22всв585426 0.0 1019317
11:30+25св68410 0.0 1018579
14:30+27ссв66380 0.0 1015817
17:30+27ссв78430 0.0 1015448
20:30+24ссв811550 0.0 1017285
11 декабря, сб
сб1123:30+24св69530 0.0 1016209
02:30+23всв58480 0.0 1015178
05:30+22св57500 0.0 1015181
08:30+22всв57500 0.0 1017273
11:30+25св45390 0.0 1017446
14:30+27ссв54380 0.0 1014471
17:30+27с44390 0.0 1014295
20:30+24ссв79570 0.0 1016220
12 декабря, вс
вс1223:30+23ссв57610 0.0 1016171
02:30+23св45570 0.0 1015115
05:30+22св45530 0.0 1015117
08:30+23св45520 0.0 1017240
11:30+25св45410 0.0 1017444
14:30+26ссв44360 0.0 1014477
17:30+26с44373 0.0 1014259
20:30+24с57560 0.0 1015174